Station: Robe Airport  

  Atmospheric Gas Attenuation - ITU Rec 676-11   ----------------- dB/100km -----------------
Date Time Temp RH % AH g/m3 Dew Point Wind Direction Speed kph Gust kph Barometer mB Rainfall Since 9am 24GHz 47GHz 76GHz 122GHz 134GHz 241GHz
11/05 02:40 7.1 94 7.33 6.2 7 7 1031.8 0 17.2 26.5 38.7 101.2 90.8 310.8
11/05 02:30 6.9 94 7.24 6 7 9 1031.8 0 17.0 26.4 38.4 100.4 89.8 307.2
11/05 02:20 6.8 93 7.12 5.7 7 7 1031.8 0 16.7 26.2 38.0 99.2 88.2 301.7
11/05 02:10 6.8 93 7.12 5.7 7 9 1031.9 0 16.7 26.2 38.0 99.2 88.2 301.7
11/05 02:00 6.9 93 7.16 5.8 7 9 1032 0 16.8 26.2 38.1 99.5 88.7 303.3
11/05 01:50 7.3 93 7.35 6.2 7 7 1032 0 17.2 26.5 38.7 101.2 90.9 311.0
11/05 01:40 7.1 92 7.18 5.9 6 7 1032.1 0 16.8 26.2 38.1 99.5 88.8 303.5
11/05 01:30 7.4 93 7.4 6.3 6 7 1032.1 0 17.3 26.5 38.9 101.6 91.5 313.1
11/05 01:20 7 92 7.13 5.8 6 6 1032.1 0 16.7 26.2 37.9 99.1 88.2 301.5
11/05 01:10 7.2 91 7.15 5.9 6 6 1032 0 16.8 26.1 37.9 99.0 88.2 301.7
11/05 01:00 7.2 91 7.15 5.8 6 7 1032.1 0 16.8 26.1 37.9 99.1 88.2 301.7
11/05 00:50 7.5 91 7.29 6.1 6 6 1032 0 17.1 26.3 38.4 100.2 89.8 307.3
11/05 00:40 8.2 90 7.54 6.6 6 6 1031.9 0 17.6 26.5 39.1 102.1 92.4 316.6
11/05 00:30 9.1 91 8.08 7.7 7 9 1031.9 0 18.7 27.2 40.9 107.0 98.9 339.2
11/05 00:20 8.9 91 7.97 7.5 7 9 1031.9 0 18.5 27.0 40.5 106.1 97.6 334.7
11/05 00:10 9.1 91 8.08 7.7 9 11 1031.9 0 18.7 27.2 40.9 107.0 98.9 339.2
11/05 00:00 9.2 92 8.22 8 7 11 1031.9 0 19.0 27.4 41.4 108.5 100.7 345.7
10/05 23:50 8.9 91 7.97 7.5 7 7 1031.8 0 18.5 27.0 40.5 106.0 97.6 334.7
10/05 23:40 9 91 8.03 7.7 7 7 1031.8 0 18.6 27.1 40.7 106.6 98.3 337.2
10/05 23:30 9 91 8.03 7.6 6 7 1031.8 0 18.6 27.1 40.7 106.6 98.3 337.2
10/05 23:20 9.1 91 8.08 7.7 6 6 1031.8 0 18.7 27.1 40.9 107.0 98.9 339.2
10/05 23:10 9.1 91 8.08 7.7 6 6 1031.9 0 18.7 27.2 40.9 107.0 98.9 339.2
10/05 23:00 9.7 92 8.48 8.5 7 11 1031.9 0 19.5 27.7 42.3 110.8 103.7 356.2
10/05 22:50 9.8 92 8.54 8.5 7 7 1031.9 0 19.6 27.7 42.5 111.3 104.4 358.7
10/05 22:40 9.5 93 8.47 8.4 6 6 1031.9 0 19.5 27.7 42.3 110.9 103.8 356.6
10/05 22:30 9.4 93 8.41 8.3 7 9 1032 0 19.4 27.6 42.2 110.4 103.1 354.2
10/05 22:20 9.4 92 8.32 8.1 7 7 1032.1 0 19.2 27.5 41.8 109.4 101.9 349.7
10/05 22:10 9.5 92 8.38 8.2 7 7 1032.2 0 19.3 27.6 42.0 109.9 102.6 352.3
10/05 22:00 9.7 93 8.58 8.6 7 11 1032.2 0 19.7 27.8 42.7 111.9 105.1 361.2
10/05 21:50 9.5 93 8.47 8.4 7 9 1032.1 0 19.5 27.7 42.4 110.9 103.8 356.7
10/05 21:40 9.4 92 8.32 8.1 9 11 1032.1 0 19.2 27.5 41.8 109.4 101.9 349.7
10/05 21:30 9.8 92 8.54 8.6 7 11 1032.1 0 19.6 27.7 42.5 111.3 104.4 358.8
10/05 21:20 10.2 93 8.85 9.1 6 7 1032 0 20.3 28.1 43.6 114.3 108.2 372.2
10/05 21:10 10.4 93 8.97 9.3 9 9 1032 0 20.5 28.3 44.0 115.4 109.7 377.2
10/05 21:00 9.3 92 8.27 8.1 6 9 1031.9 0 19.1 27.4 41.6 108.9 101.3 347.7
10/05 20:50 9.9 91 8.5 8.5 6 6 1031.8 0 19.5 27.6 42.3 110.7 103.7 356.3
10/05 20:40 10.3 93 8.91 9.2 7 9 1031.7 0 20.4 28.2 43.8 114.8 108.9 374.6
10/05 20:30 9.8 92 8.54 8.6 7 9 1031.6 0 19.6 27.7 42.5 111.3 104.4 358.6
10/05 20:20 9.9 90 8.41 8.3 7 7 1031.7 0 19.4 27.5 41.9 109.7 102.4 351.8
10/05 20:10 10.6 91 8.88 9.2 7 7 1031.7 0 20.3 28.0 43.5 114.0 108.1 371.7
10/05 20:00 10.9 91 9.05 9.5 6 6 1031.6 0 20.7 28.2 44.1 115.5 110.0 378.6
10/05 19:50 10.9 91 9.05 9.5 6 6 1031.6 0 20.7 28.2 44.1 115.5 110.0 378.6
10/05 19:40 10.9 90 8.95 9.3 6 6 1031.7 0 20.5 28.1 43.6 114.4 108.6 373.7
10/05 19:30 11 90 9.01 9.4 6 7 1031.7 0 20.6 28.1 43.8 114.9 109.3 376.2
10/05 19:20 11.3 90 9.18 9.7 6 7 1031.6 0 20.9 28.3 44.4 116.4 111.3 383.1
10/05 19:10 11.4 89 9.14 9.6 7 7 1031.5 0 20.8 28.2 44.2 115.8 110.6 380.6
10/05 19:00 11.8 89 9.37 10 7 9 1031.3 0 21.3 28.5 44.9 117.8 113.2 389.9
10/05 18:50 11.9 87 9.22 9.9 6 7 1031.2 0 21.0 28.2 44.2 115.9 111.0 382.0
10/05 18:40 12.5 88 9.68 10.5 7 9 1031.2 0 21.9 28.8 45.8 120.3 116.6 401.6
10/05 18:30 12.9 88 9.92 11 11 15 1031.1 0 22.4 29.1 46.6 122.4 119.3 411.4
10/05 18:20 13.2 89 10.22 11.4 9 11 1031.1 0 23.1 29.5 47.7 125.4 123.1 424.7
10/05 18:10 13 88 9.98 11 6 7 1030.9 0 22.6 29.1 46.8 122.9 120.0 413.7
10/05 18:00 12.6 87 9.63 10.5 4 9 1030.9 0 21.8 28.7 45.5 119.5 115.7 398.5
10/05 17:50 12.7 85 9.46 10.2 2 2 1030.7 0 21.5 28.3 44.8 117.4 113.1 389.6
10/05 17:40 12.9 85 9.58 10.4 4 4 1030.6 0 21.7 28.5 45.1 118.4 114.5 394.4
10/05 17:30 13.4 84 9.77 10.8 6 9 1030.4 0 22.1 28.6 45.7 119.8 116.4 401.1
10/05 17:20 13.6 84 9.89 10.9 7 9 1030.2 0 22.3 28.8 46.0 120.9 117.7 405.9
10/05 17:10 13.9 83 9.95 11 9 9 1030.1 0 22.4 28.8 46.1 121.1 118.1 407.3
10/05 17:00 14.2 82 10.01 11.2 9 15 1030.1 0 22.6 28.8 46.2 121.3 118.5 408.6
10/05 16:50 14.4 81 10.01 11.3 11 13 1030 0 22.5 28.7 46.1 121.0 118.2 407.5
10/05 16:40 14.4 81 10.01 11.3 7 9 1030 0 22.5 28.7 46.1 121.0 118.2 407.5
10/05 16:30 14.4 80 9.89 11 11 19 1030 0 22.3 28.5 45.6 119.6 116.5 401.7
10/05 16:20 14.7 80 10.07 11.4 9 9 1030 0 22.7 28.7 46.1 121.2 118.5 408.9
10/05 16:10 14.7 80 10.07 11.4 13 15 1030 0 22.7 28.7 46.1 121.2 118.5 408.9
10/05 16:00 14.8 81 10.26 11.6 11 15 1030 0 23.1 29.0 46.9 123.2 121.0 417.6
10/05 15:50 15.1 79 10.19 11.6 9 11 1030 0 22.9 28.8 46.4 121.9 119.6 412.6
10/05 15:40 15.1 78 10.06 11.4 13 15 1030 0 22.6 28.6 45.9 120.4 117.8 406.3
10/05 15:30 15.2 79 10.25 11.6 11 15 1030 0 23.0 28.8 46.6 122.4 120.3 415.0
10/05 15:20 15.3 78 10.19 11.6 9 11 1030 0 22.9 28.7 46.3 121.6 119.3 411.5
10/05 15:10 15.5 78 10.31 11.8 9 13 1030 0 23.1 28.8 46.7 122.6 120.6 416.3
10/05 15:00 15.5 79 10.44 11.9 7 13 1030 0 23.4 29.1 47.2 124.1 122.4 422.6
10/05 14:50 15.3 78 10.19 11.5 9 9 1030 0 22.9 28.7 46.3 121.6 119.3 411.5
10/05 14:40 15 78 10 11.2 9 13 1030 0 22.5 28.5 45.7 119.9 117.1 403.9
10/05 14:30 15 78 10 11.2 9 13 1030 0 22.5 28.5 45.7 119.9 117.1 403.9
10/05 14:20 15.2 77 9.99 11.2 11 13 1030.1 0 22.5 28.4 45.5 119.5 116.7 402.4
10/05 14:10 15.3 78 10.19 11.6 7 11 1030 0 22.9 28.7 46.3 121.6 119.3 411.5
10/05 14:00 15.1 80 10.32 11.7 7 11 1030 0 23.2 29.0 47.0 123.4 121.4 418.9
10/05 13:50 15.1 79 10.19 11.6 9 9 1030.1 0 22.9 28.8 46.4 121.9 119.6 412.6
10/05 13:40 14.9 80 10.2 11.6 6 6 1030.2 0 22.9 28.9 46.6 122.3 120.1 414.2
10/05 13:30 14.5 82 10.2 11.5 9 15 1030.2 0 22.9 29.0 46.8 123.0 120.7 416.3
10/05 13:20 14.4 81 10.01 11.3 9 11 1030.2 0 22.5 28.7 46.1 121.0 118.2 407.6
10/05 13:10 14.5 83 10.32 11.6 9 11 1030.2 0 23.2 29.2 47.3 124.3 122.4 422.2
10/05 13:00 14.7 84 10.58 12 9 15 1030.3 0 23.7 29.6 48.3 127.0 125.7 434.0
10/05 12:50 14.2 83 10.14 11.3 7 7 1030.4 0 22.8 29.0 46.8 122.8 120.3 415.1
10/05 12:40 13.8 83 9.89 10.9 6 6 1030.6 0 22.3 28.7 45.9 120.6 117.5 405.0
10/05 12:30 14.1 83 10.07 11.3 7 13 1030.7 0 22.7 28.9 46.5 122.2 119.5 412.3
10/05 12:20 14.1 85 10.32 11.6 9 11 1030.8 0 23.2 29.4 47.6 125.0 123.1 424.6
10/05 12:10 14 85 10.25 11.5 7 11 1030.9 0 23.1 29.3 47.4 124.4 122.2 421.7
10/05 12:00 13.8 85 10.13 11.3 9 17 1031.1 0 22.8 29.1 47.0 123.4 120.9 416.9
10/05 11:50 13.8 85 10.13 11.3 7 9 1031.3 0 22.8 29.2 47.0 123.4 120.9 417.0
10/05 11:40 13.6 86 10.12 11.3 7 9 1031.4 0 22.8 29.2 47.1 123.6 121.1 417.6
10/05 11:30 13.4 86 10 11.1 9 13 1031.4 0 22.6 29.1 46.7 122.6 119.7 412.8
10/05 11:20 13.6 86 10.12 11.4 9 13 1031.5 0 22.8 29.2 47.1 123.6 121.1 417.7
10/05 11:10 13.2 86 9.88 11 7 9 1031.6 0 22.3 28.9 46.3 121.5 118.3 408.0
10/05 11:00 13.5 88 10.29 11.6 7 11 1031.7 0 23.2 29.5 47.9 125.8 123.7 426.7
10/05 10:50 13.4 90 10.46 11.8 9 11 1031.7 0 23.6 29.9 48.7 127.9 126.3 435.8
10/05 10:40 13.1 91 10.38 11.6 9 9 1031.6 0 23.4 29.8 48.5 127.5 125.6 433.4
10/05 10:30 13.1 91 10.38 11.7 9 13 1031.5 0 23.4 29.8 48.5 127.5 125.6 433.4
10/05 10:20 12.6 92 10.18 11.3 7 7 1031.5 0 23.0 29.7 48.0 125.9 123.6 426.1
10/05 10:10 12.7 92 10.24 11.4 9 11 1031.4 0 23.1 29.7 48.2 126.5 124.2 428.5

Last Refresh: 11-May-2026 02:45:50

Bureau of Meteorology